Location: Aurora Center
(43.5271°N, 98.5894°W)
Time: 22:38:46
(UTC-05:00)

ISS - Pass Details

Date: 27 June 2024
Orbit: 409 x 424 km, 51.6° (Epoch: 18 July)

Event Time Altitude Azimuth Distance (km) Brightness Sun altitude
Exits shadow 04:30:12 16° 258° (WSW) 1,176 -2.0 -12.3°
Maximum altitude 04:32:41 53° 333° (NNW) 515 -3.2 -12.0°
Drops below altitude 10° 04:35:53 11° 51° (NE) 1,455 0.4 -11.7°
Sets 04:38:07 0° 57° (ENE) 2,365 1.8 -11.4°
